Regional Weather Roundup
Issued by NWS

Home | Current Version | Previous Version | Text Only | Print | Product List | Glossary On
Versions: 1 2 3 4 5 6 7 8 9 10 11 12 13 14 15 16 17 18 19 20 21 22 23 24 25 26 27 28 29 30 31 32 33 34 35 36 37 38 39 40 41 42 43 44 45 46 47 48 49 50
000
ASUS43 KMKX 240817
RWRWI

WISCONSIN REGIONAL WEATHER ROUNDUP
NATIONAL WEATHER SERVICE MILWAUKEE/SULLIVAN WI
300 AM CDT SUN MAY 24 2015

NOTE: "FAIR" INDICATES FEW OR NO CLOUDS BELOW 12,000 FEET WITH NO
SIGNIFICANT WEATHER AND/OR OBSTRUCTIONS TO VISIBILITY.

WIZ001-002-006>008-014>016-023>028-240900-
NORTHWEST WISCONSIN

CITY           SKY/WX    TMP DP  RH WIND       PRES   REMARKS
SUPERIOR ARPT  PTCLDY    50  44  80 S3        30.13F
ASHLAND        PTCLDY    44  42  93 CALM      30.15S
HAYWARD        CLOUDY    53  47  79 CALM      30.16S
SIREN          CLOUDY    56  52  87 CALM      30.14F
CUMBERLAND     CLOUDY    55  50  82 NE6       30.15S
RICE LAKE      CLOUDY    57  52  84 N5        30.16F
CHETEK         CLOUDY    58  50  73 E3        30.15F
LADYSMITH      CLOUDY    58  48  68 E3        30.18S
EAU CLAIRE     CLOUDY    58  47  66 NE3       30.13S
MENOMONIE      CLOUDY    59  46  61 CALM      30.13S
NEW RICHMOND   DRIZZLE   59  48  65 E5        30.13F
OSCEOLA        LGT RAIN  59  51  75 E7        30.16F
$$

WIZ003>005-009-010-017-018-240900-
NORTH CENTRAL WISCONSIN

CITY           SKY/WX    TMP DP  RH WIND       PRES   REMARKS
MANITOWISH WTR CLOUDY    53  49  87 CALM      30.18R
ARBOR VITAE    CLOUDY    57  49  74 CALM      30.18R
WOODRUFF       CLOUDY    57  49  74 CALM      30.18R
RHINELANDER    CLOUDY    55  48  77 CALM      30.19R
EAGLE RIVER    CLOUDY    55  45  68 CALM      30.18R
LAND O LAKES   CLOUDY    51  44  75 CALM      30.19R
PHILLIPS       CLOUDY    55  49  81 CALM      30.17R
TOMAHAWK       CLOUDY    53  48  84 CALM      30.18S
MEDFORD        CLOUDY    55  50  84 CALM      30.17S
MERRILL        CLOUDY    55  50  85 CALM      30.19R
$$

WIZ029-030-035-036-043>047-240900-
CENTRAL WISCONSIN

CITY           SKY/WX    TMP DP  RH WIND       PRES   REMARKS
WAUSAU         MOCLDY    57  49  74 E3        30.16R
MOSINEE        MOCLDY    59  45  58 CALM      30.18R
MARSHFIELD     PTCLDY    57  46  66 NE3       30.16S
STEVENS POINT  MOCLDY    54  48  81 CALM      30.17R
WAUPACA        MOCLDY    58  49  74 CALM      30.17R
WAUTOMA        NOT AVBL
WISC RAPIDS    PTCLDY    54  45  71 CALM      30.18R
CAMP DOUGLAS   NOT AVBL
$$

WIZ011>013-019>022-031-037>040-048>050-240900-
NORTHEAST WISCONSIN

CITY           SKY/WX    TMP DP  RH WIND       PRES   REMARKS
ANTIGO         CLOUDY    55  50  82 CALM      30.19R
SHAWANO        MOCLDY    56  48  75 CALM      30.16S
OCONTO         CLOUDY    53  48  84 CALM      30.16S
STURGEON BAY   CLOUDY    59  39  47 S7        30.20R
GREEN BAY      PTCLDY    62  42  47 S5        30.17R
MANITOWOC      NOT AVBL
APPLETON       MOCLDY    59  43  55 CALM      30.17R
CLINTONVILLE   MOCLDY    55  46  71 CALM      30.16R
OSHKOSH        PTCLDY    54  43  66 CALM      30.17R
$$

WIZ032>034-041-042-053>061-240900-
SOUTHWEST WISCONSIN

CITY           SKY/WX    TMP DP  RH WIND       PRES   REMARKS
LA CROSSE      CLOUDY    60  50  69 SE6       30.14R
SPARTA         PTCLDY    49  47  91 CALM      30.16R
VIROQUA        PTCLDY    60  45  56 SE7       30.16R
BOSCOBEL       CLOUDY    55  50  83 CALM      30.16R
PRAIRIE DU CHI CLOUDY    56  50  79 E3        30.14S
PLATTEVILLE    CLOUDY    61  49  65 SE6       30.16R
$$

WIZ056-057-062-063-064-067-068-240900-
SOUTH CENTRAL WISCONSIN

CITY           SKY/WX    TMP DP  RH WIND       PRES   REMARKS
REEDSBURG      MOCLDY    51  49  92 CALM      30.16R
BARABOO/DELLS  CLEAR     53  44  71 CALM      30.16R
LONE ROCK      NOT AVBL
MINERAL POINT  PTCLDY    63  43  48 SE5       30.16S
MADISON        MOCLDY    53  47  79 CALM      30.17R
MIDDLETON      CLOUDY    54  47  77 CALM      30.17S
WATERTOWN      PTCLDY    55  45  68 CALM      30.17R
MONROE         PTCLDY    61  48  63 S8        30.17R
JANESVILLE     PTCLDY    55  45  67 CALM      30.17R
$$

WIZ051-052-058>065-066-070>072-240900-
SOUTHEAST WISCONSIN

CITY           SKY/WX    TMP DP  RH WIND       PRES   REMARKS
MILWAUKEE      PTCLDY    55  39  54 CALM      30.18R
WAUKESHA       PTCLDY    52  39  62 CALM      30.19R
MILWAUKEE/TIMM CLEAR     52  41  66 CALM      30.19R
RACINE         PTCLDY    58  43  57 SW7       30.20R
BURLINGTON     PTCLDY    49  45  85 CALM      30.19R
KENOSHA        PTCLDY    55  45  68 SW6       30.19R
FOND DU LAC    CLEAR     56  43  61 S5        30.17R
SHEBOYGAN      CLEAR     46  40  79 CALM      30.18S
WEST BEND      CLEAR     46  43  87 CALM      30.18S
JUNEAU         CLEAR     57  43  59 SE5       30.18S
$$

LSZ147-162-240900-
LAKE SUPERIOR

STATION/POSITION TIME  TEMP    WIND        PRES    WAVE
                       AIR SEA DIR/SP/G            HT/PER
                 (UTC) (F)     (DEG/KT/KT) (MB)    (FT/S)
W MID LAKE BUOY  0650   46 36  230/ 12/ 12   N/A     1/ 3
DEVILS ISLAND    0700   56     240/ 13/ 14   N/A
PORT WING        0740   51     160/  2/  4   N/A
SAXON HARBOR     0540   54     190/  4/  7   N/A
$$

LMZ867-665-643>646-240900-
LAKE MICHIGAN

STATION/POSITION TIME  TEMP    WIND        PRES    WAVE
                       AIR SEA DIR/SP/G            HT/PER
                 (UTC) (F)     (DEG/KT/KT) (MB)    (FT/S)
CHAMBERS ISLAND  0700   62     210/  4/  7   N/A
N MID LAKE BUOY  0650   42 36  230/  6/  8   N/A     2/ 4
NORTHPORT PIER   0700   65     240/  3/  8   N/A
SISTER BAY       0702   62     330/  4/  5   N/A
KEWAUNEE LAKESHO 0700   51      CALM  /  3   N/A
SHEBOYGAN LAKESH 0700   55     180/  5/  5   N/A
PORT WASHINGTON  0600   52        CALM       N/A
ATWATER BUOY     0700   47 45   10/  2/  4   N/A
MILWAUKEE LAKESH 0700   51      50/  5/  5   N/A
S MID LAKE BUOY  0650   47 38  160/  8/  8   N/A
KENOSHA   LAKESH 0700   54     170/  6/  6   N/A
$$

TC  - TEMPERATURE IN CELSIUS
VSB - VISIBILITY IN STATUTE MILES
WCI - WIND CHILL INDEX
HX  - HEAT INDEX



USA.gov is the U.S. government's official web portal to all federal, state and local government web resources and services.